Location: Newark
(43.0000°N, 1.6781°W)
Time: 11:15:40
(UTC+00:00)

S-56A Canister/Altair - All Passes

Search period start: 18 April 2021 00:00
Search period end: 28 April 2021 00:00
Orbit: 632 x 2500 km, 38.9° (Epoch: 17 April)

Date Brightness Start Highest point End Pass type
(mag) Time Alt. Az. Time Alt. Az. Time Alt. Az.
18 Apr - 01:07:52 10° WSW 01:13:53 49° S 01:18:26 10° E visible
18 Apr - 03:12:25 10° W 03:17:13 47° S 03:21:27 10° ESE visible
18 Apr - 05:17:02 10° WSW 05:20:11 19° SSW 05:23:27 10° SSE daylight
18 Apr - 22:31:07 10° SSW 22:37:37 25° SSE 22:42:29 10° ESE night (unlit)
19 Apr - 00:34:49 10° WSW 00:41:19 48° S 00:46:04 10° E night (unlit)
19 Apr - 02:39:34 10° W 02:44:44 51° S 02:49:03 10° ESE visible
19 Apr - 04:44:15 10° WSW 04:47:43 22° SSW 04:51:11 10° SSE visible
19 Apr - 21:58:06 10° SSW 22:04:53 24° SSE 22:09:59 10° ESE visible
20 Apr - 00:01:40 10° WSW 00:08:43 47° SSE 00:13:43 10° E night (unlit)
20 Apr - 02:06:38 10° W 02:12:15 54° S 02:16:40 10° ESE visible
20 Apr - 04:11:27 10° W 04:15:16 25° SSW 04:18:55 10° SSE visible
20 Apr - 21:25:06 10° SSW 21:32:07 23° SSE 21:37:26 10° ESE visible
20 Apr - 23:28:28 10° SW 23:36:05 46° SSE 23:41:22 10° E night (unlit)
21 Apr - 01:33:37 10° W 01:39:43 56° S 01:44:19 10° ESE visible
21 Apr - 03:38:35 10° W 03:42:50 29° SSW 03:46:39 10° SE visible
21 Apr - 20:52:06 10° SSW 20:59:18 22° SSE 21:04:49 10° ESE visible
21 Apr - 22:55:12 10° SW 23:03:24 45° SSE 23:09:00 10° E visible
22 Apr - 01:00:29 10° W 01:07:10 59° S 01:11:59 10° ESE night (unlit)
22 Apr - 03:05:40 10° W 03:10:23 33° SSW 03:14:24 10° SE visible
22 Apr - 20:19:08 10° S 20:26:26 21° SSE 20:32:08 10° ESE visible
22 Apr - 22:21:54 10° SW 22:30:39 44° SSE 22:36:37 10° E visible
23 Apr - 00:27:16 10° WSW 00:34:34 60° S 00:39:40 10° E night (unlit)
23 Apr - 02:32:41 10° W 02:37:55 38° SSW 02:42:09 10° SE visible
23 Apr - 19:46:15 10° S 19:53:32 19° SSE 19:59:20 10° ESE visible
23 Apr - 21:48:32 10° SW 21:57:52 42° SSE 22:04:13 10° E visible
23 Apr - 23:53:58 10° WSW 00:01:56 61° S 00:07:20 10° E visible
24 Apr - 01:59:36 10° W 02:05:27 43° SSW 02:09:54 10° SE visible
24 Apr - 04:06:06 10° WSW 04:08:04 12° SW 04:09:55 10° SSW visible
24 Apr - 19:13:26 10° S 19:20:34 18° SE 19:26:25 10° ESE daylight
24 Apr - 21:15:09 10° SW 21:25:01 41° SSE 21:31:46 10° E visible
24 Apr - 23:20:34 10° WSW 23:29:15 61° S 23:35:00 10° E visible
25 Apr - 01:26:27 10° W 01:32:56 49° SSW 01:37:39 10° ESE night (unlit)
25 Apr - 03:32:38 10° WSW 03:35:38 16° SW 03:38:22 10° S visible
25 Apr - 18:40:46 10° S 18:47:35 17° SE 18:53:20 10° ESE daylight
25 Apr - 20:41:46 10° SW 20:52:06 39° SSE 20:59:17 10° E visible
25 Apr - 22:47:06 10° WSW 22:56:30 61° S 23:02:39 10° E visible
26 Apr - 00:53:12 10° W 01:00:22 54° SSW 01:05:24 10° ESE visible
26 Apr - 02:59:18 10° W 03:03:13 19° SW 03:06:34 10° SSE visible
26 Apr - 18:08:17 10° S 18:14:34 15° SE 18:20:02 10° ESE daylight
26 Apr - 20:08:24 10° SW 20:19:09 37° SSE 20:26:44 10° E visible
26 Apr - 22:13:34 10° WSW 22:23:41 61° S 22:30:17 10° E visible
27 Apr - 00:19:52 10° W 00:27:45 58° SSW 00:33:07 10° ESE visible
27 Apr - 02:26:00 10° W 02:30:46 24° SSW 02:34:38 10° SSE night (unlit)
27 Apr - 17:36:05 10° SSE 17:41:32 14° SE 17:46:25 10° ESE daylight
27 Apr - 19:35:03 10° SSW 19:46:07 36° SSE 19:54:07 10° E visible
27 Apr - 21:40:00 10° WSW 21:50:49 60° S 21:57:53 10° E visible
